Hat Yai, Thailand

8:39 AM ICT on February 26, 2017 (GMT +0700)
Hat Yai International

Weather History for VTSS - March, 2013

Change the Weather History Date:

Sunday, March 17, 2013

  Actual Average Record
Temperature  
Mean Temperature 84 °F -  
Max Temperature 92 °F 90 °F 96 °F (2007)
Min Temperature 75 °F 74 °F 65 °F (2015)
Cooling Degree Days 18    
Growing Degree Days 34 (Base 50)    
Moisture  
Dew Point 72 °F    
Average Humidity 72    
Maximum Humidity 94    
Minimum Humidity 36    
Precipitation  
Precipitation 0.00 in - - ()
Sea Level Pressure  
Sea Level Pressure 29.88 in    
Wind  
Wind Speed 4 mph ()    
Max Wind Speed 86 mph    
Max Gust Speed -    
Visibility 6.0 miles    
Events      
Averages and records for this station are not official NWS values.
T = Trace of Precipitation, MM = Missing Value Source: Averaged Metar Reports

Daily Weather History Graph

Daily Weather History Graph

Search for Another Location

Airport or City:

Trip Planner

Search our weather history database for the weather conditions in past years. The results will help you decide how hot, cold, wet, or windy it might be!

Date:

Astronomy

Mar. 17, 2013 Rise Set
Actual Time 6:24 AM ICT 6:29 PM ICT
Civil Twilight 6:03 AM ICT 6:50 PM ICT
Nautical Twilight 5:39 AM ICT 7:14 PM ICT
Astronomical Twilight 5:14 AM ICT 7:38 PM ICT
Moon 10:15 AM ICT (3/17) 10:58 PM ICT (3/17)
Length of Visible Light 12h 46m
Length of Day
12h 05m
Waxing Crescent, 27% of the Moon is Illuminated
Mar 17
Waxing Crescent
Mar 20
First Quarter
Mar 27
Full
Apr 3
Last Quarter
Apr 10
New

Hourly Weather History & Observations

Time (ICT) Temp. Heat Index Dew Point Humidity Pressure Visibility Wind Dir Wind Speed Gust Speed Precip Events Conditions
12:00 AM 78.8 °F - 73.4 °F 83% 29.95 in 6.2 mi Calm Calm - N/A   Mostly Cloudy
12:30 AM 78.8 °F - 73.4 °F 83% 29.95 in 6.2 mi Calm Calm - N/A   Mostly Cloudy
1:00 AM 79 °F - 74 °F 82% 29.93 in 6 mi Calm Calm - -   Scattered Clouds
1:00 AM 78.8 °F - 75.2 °F 89% 29.92 in 6.2 mi Calm Calm - N/A   Mostly Cloudy
1:30 AM 78.8 °F - 75.2 °F 89% 29.92 in 6.2 mi Calm Calm - N/A   Mostly Cloudy
2:00 AM 78.8 °F - 73.4 °F 83% 29.89 in 6.2 mi Calm Calm - N/A   Mostly Cloudy
2:30 AM 77.0 °F - 73.4 °F 89% 29.89 in 6.2 mi Calm Calm - N/A   Mostly Cloudy
3:00 AM 77.0 °F - 73.4 °F 89% 29.89 in 6.2 mi Calm Calm - N/A   Mostly Cloudy
3:30 AM 77.0 °F - 73.4 °F 89% 29.89 in 5.0 mi Calm Calm - N/A   Mostly Cloudy
4:00 AM 77.0 °F - 73.4 °F 89% 29.89 in 5.0 mi Calm Calm - N/A   Mostly Cloudy
4:30 AM 75.2 °F - 73.4 °F 94% 29.89 in 5.0 mi Calm Calm - N/A   Mostly Cloudy
5:00 AM 77.0 °F - 73.4 °F 89% 29.89 in 5.0 mi Calm Calm - N/A   Scattered Clouds
5:30 AM 77.0 °F - 73.4 °F 89% 29.89 in 5.0 mi Calm Calm - N/A   Scattered Clouds
6:00 AM 75.2 °F - 73.4 °F 94% 29.89 in 5.0 mi Calm Calm - N/A   Scattered Clouds
6:30 AM 75.2 °F - 73.4 °F 94% 29.92 in 5.6 mi Calm Calm - N/A   Scattered Clouds
7:00 AM 76 °F - 74 °F 90% 29.92 in 6 mi Calm Calm - -   Mist
7:00 AM 75.2 °F - 73.4 °F 94% 29.92 in 5.6 mi Calm Calm - N/A   Scattered Clouds
7:30 AM 78.8 °F - 75.2 °F 89% 29.92 in 6.2 mi Calm Calm - N/A   Scattered Clouds
8:00 AM 80.6 °F 85.4 °F 73.4 °F 79% 29.92 in 6.2 mi North 2.3 mph - N/A   Scattered Clouds
8:30 AM 82.4 °F 89.5 °F 75.2 °F 79% 29.92 in 6.2 mi Calm Calm - N/A   Scattered Clouds
9:00 AM 84.2 °F 92.3 °F 75.2 °F 74% 29.95 in 6.2 mi NE 4.6 mph - N/A   Scattered Clouds
9:30 AM 86.0 °F 93.4 °F 73.4 °F 66% 29.95 in 6.2 mi NE 9.2 mph - N/A   Mostly Cloudy
10:00 AM 86.0 °F 91.8 °F 71.6 °F 62% 29.95 in 6.2 mi NE 9.2 mph - N/A   Mostly Cloudy
10:30 AM 86.0 °F 93.4 °F 73.4 °F 66% 29.92 in 6.2 mi ENE 9.2 mph - N/A   Mostly Cloudy
11:00 AM 89.6 °F 96.2 °F 71.6 °F 55% 29.92 in 6.2 mi ENE 9.2 mph - N/A   Mostly Cloudy
11:30 AM 89.6 °F 94.7 °F 69.8 °F 52% 29.89 in 6.2 mi ESE 9.2 mph - N/A   Mostly Cloudy
12:00 PM 89.6 °F 93.4 °F 68.0 °F 49% 29.89 in 6.2 mi SE 5.8 mph - N/A   Mostly Cloudy
12:30 PM 91.4 °F 96.8 °F 69.8 °F 49% 29.86 in 6.2 mi NE 86.3 mph - N/A   Mostly Cloudy
1:00 PM 92 °F - 68 °F 36% 29.86 in 6 mi NNE 8.1 mph - -   Scattered Clouds
1:00 PM 93.2 °F 97.7 °F 68.0 °F 44% 29.86 in 6.2 mi NNE 8.1 mph - N/A   Mostly Cloudy
1:30 PM 91.4 °F 96.8 °F 69.8 °F 49% 29.86 in 6.2 mi NE 10.4 mph - N/A   Mostly Cloudy
2:00 PM 91.4 °F 95.4 °F 68.0 °F 46% 29.83 in 6.2 mi NNE 11.5 mph - N/A   Mostly Cloudy
2:30 PM 91.4 °F 98.4 °F 71.6 °F 52% 29.83 in 6.2 mi NNE 11.5 mph - N/A   Mostly Cloudy
3:00 PM 91.4 °F 98.4 °F 71.6 °F 52% 29.80 in 6.2 mi NNE 13.8 mph - N/A   Mostly Cloudy
3:30 PM 89.6 °F 96.2 °F 71.6 °F 55% 29.80 in 6.2 mi NNE 11.5 mph - N/A   Mostly Cloudy
4:00 PM 89.6 °F 96.2 °F 71.6 °F 55% 29.80 in 6.2 mi NNE 8.1 mph - N/A   Mostly Cloudy
4:30 PM 89.6 °F 96.2 °F 71.6 °F 55% 29.80 in 6.2 mi NE 8.1 mph - N/A   Mostly Cloudy
5:00 PM 87.8 °F 93.8 °F 71.6 °F 58% 29.80 in 6.2 mi NE 9.2 mph - N/A   Scattered Clouds
5:30 PM 87.8 °F 95.6 °F 73.4 °F 62% 29.80 in 6.2 mi ENE 9.2 mph - N/A   Scattered Clouds
6:00 PM 86.0 °F 91.8 °F 71.6 °F 62% 29.80 in 6.2 mi ENE 6.9 mph - N/A   Scattered Clouds
6:30 PM 84.2 °F 89.6 °F 71.6 °F 66% 29.80 in 6.2 mi NE 8.1 mph - N/A   Scattered Clouds
7:00 PM 83 °F - 71 °F 58% 29.82 in 6 mi ENE 8.1 mph - -   Scattered Clouds
7:00 PM 84.2 °F 89.6 °F 71.6 °F 66% 29.80 in 6.2 mi ENE 8.1 mph - N/A   Scattered Clouds
7:30 PM 82.4 °F 87.2 °F 71.6 °F 70% 29.80 in 6.2 mi ENE 9.2 mph - N/A   Scattered Clouds
8:00 PM 82.4 °F 87.2 °F 71.6 °F 70% 29.83 in 6.2 mi NE 3.5 mph - N/A   Scattered Clouds
8:30 PM 82.4 °F 88.2 °F 73.4 °F 74% 29.86 in 6.2 mi NW 26.5 mph - N/A   Scattered Clouds
9:00 PM 80.6 °F 85.4 °F 73.4 °F 79% 29.86 in 6.2 mi Calm Calm - N/A   Mostly Cloudy
9:30 PM 80.6 °F 85.4 °F 73.4 °F 79% 29.89 in 6.2 mi North 4.6 mph - N/A   Mostly Cloudy
10:00 PM 80.6 °F 85.4 °F 73.4 °F 79% 29.89 in 6.2 mi Calm Calm - N/A   Mostly Cloudy
10:30 PM 78.8 °F - 73.4 °F 83% 29.89 in 6.2 mi Calm Calm - N/A   Mostly Cloudy
11:00 PM 78.8 °F - 73.4 °F 83% 29.89 in 6.2 mi Calm Calm - N/A   Mostly Cloudy
11:30 PM 77.0 °F - 73.4 °F 89% 29.89 in 6.2 mi Calm Calm - N/A   Mostly Cloudy